Change the Weather History Date:

Monday, May 20, 2013

  Actual Average Record
Temperature  
Mean Temperature 66 °F -  
Max Temperature 77 °F 71 °F 86 °F (2014)
Min Temperature 57 °F 52 °F 44 °F (1997)
Cooling Degree Days 2    
Growing Degree Days 16 (Base 50)    
Moisture  
Dew Point 56 °F    
Average Humidity 71    
Maximum Humidity 100    
Minimum Humidity 46    
Precipitation  
Precipitation 0.00 in - - ()
Sea Level Pressure  
Sea Level Pressure 29.60 in    
Wind  
Wind Speed 10 mph (SSW)    
Max Wind Speed 22 mph    
Max Gust Speed 30 mph    
Visibility 10 miles    
Events      
Averages and records for this station are not official NWS values.
T = Trace of Precipitation, MM = Missing Value Source: NWS Daily Summary

Daily Weather History Graph

Daily Weather History Graph

Search for Another Location

Airport or City:

Trip Planner

Search our weather history database for the weather conditions in past years. The results will help you decide how hot, cold, wet, or windy it might be!

Date:

Astronomy

May. 20, 2013 Rise Set
Actual Time 6:00 AM CDT 8:40 PM CDT
Civil Twilight 5:28 AM CDT 9:12 PM CDT
Nautical Twilight 4:49 AM CDT 9:52 PM CDT
Astronomical Twilight 4:04 AM CDT 10:37 PM CDT
Moon 3:46 PM CDT (5/20) 2:59 AM CDT (5/20)
Length of Visible Light 15h 43m
Length of Day
14h 39m
Waxing Gibbous, 75% of the Moon is Illuminated
May 20
Waxing Gibbous
May 24
Full
May 31
Last Quarter
Jun 8
New
Jun 16
First Quarter

Hourly Weather History & Observations

Time (CDT) Temp. Dew Point Humidity Pressure Visibility Wind Dir Wind Speed Gust Speed Precip Events Conditions
12:58 AM 61.0 °F 59.4 °F 94% 29.57 in 10.0 mi WSW 5.8 mph - N/A   Scattered Clouds
1:58 AM 59.7 °F 59.4 °F 99% 29.56 in 10.0 mi ESE 3.5 mph - N/A   Clear
2:58 AM 58.8 °F 58.8 °F 100% 29.55 in 5.0 mi East 6.9 mph - N/A   Clear
3:58 AM 58.6 °F 58.5 °F 99% 29.56 in 7.0 mi ESE 5.8 mph - N/A   Clear
4:58 AM 57.7 °F 57.4 °F 99% 29.55 in 10.0 mi SSE 5.8 mph - N/A   Clear
5:58 AM 58.6 °F 56.3 °F 92% 29.57 in 10.0 mi SSW 11.5 mph - N/A   Clear
6:13 AM 59.0 °F 55.4 °F 88% 29.58 in 10.0 mi SSW 10.4 mph - N/A   Mostly Cloudy
6:58 AM 59.2 °F 56.8 °F 92% 29.59 in 10.0 mi SSW 9.2 mph - N/A   Overcast
7:58 AM 60.8 °F 58.8 °F 93% 29.62 in 10.0 mi SW 11.5 mph - N/A   Overcast
8:48 AM 64.4 °F 57.2 °F 77% 29.64 in 10.0 mi West 13.8 mph - N/A   Scattered Clouds
8:58 AM 64.0 °F 57.4 °F 79% 29.64 in 10.0 mi West 16.1 mph - N/A   Partly Cloudy
9:58 AM 66.4 °F 56.3 °F 70% 29.66 in 10.0 mi SW 13.8 mph 20.7 mph N/A   Clear
10:58 AM 69.3 °F 55.9 °F 62% 29.66 in 10.0 mi SW 13.8 mph - N/A   Partly Cloudy
11:58 AM 71.4 °F 56.7 °F 60% 29.67 in 10.0 mi SSW 10.4 mph - N/A   Clear
12:58 PM 72.7 °F 55.9 °F 56% 29.66 in 10.0 mi SSW 16.1 mph 21.9 mph N/A   Partly Cloudy
1:58 PM 72.0 °F 56.1 °F 57% 29.65 in 10.0 mi SSW 13.8 mph 20.7 mph N/A   Scattered Clouds
2:58 PM 75.4 °F 57.2 °F 53% 29.63 in 10.0 mi SSW 21.9 mph 27.6 mph N/A   Partly Cloudy
3:58 PM 76.6 °F 57.4 °F 51% 29.61 in 10.0 mi South 15.0 mph 25.3 mph N/A   Mostly Cloudy
4:58 PM 76.1 °F 57.2 °F 52% 29.58 in 10.0 mi South 19.6 mph 29.9 mph N/A   Mostly Cloudy
5:58 PM 76.3 °F 57.2 °F 52% 29.56 in 10.0 mi SW 15.0 mph 21.9 mph N/A   Scattered Clouds
6:58 PM 74.8 °F 55.8 °F 51% 29.55 in 10.0 mi SSW 9.2 mph - N/A   Scattered Clouds
7:58 PM 74.7 °F 52.5 °F 46% 29.56 in 10.0 mi WSW 10.4 mph - N/A   Mostly Cloudy
8:58 PM 72.0 °F 50.0 °F 46% 29.57 in 10.0 mi WSW 10.4 mph - N/A   Scattered Clouds
9:58 PM 69.3 °F 49.3 °F 49% 29.57 in 10.0 mi WSW 10.4 mph - N/A   Scattered Clouds
10:58 PM 66.7 °F 50.2 °F 55% 29.59 in 10.0 mi West 12.7 mph - N/A   Mostly Cloudy
11:58 PM 63.1 °F 52.3 °F 68% 29.61 in 10.0 mi WSW 6.9 mph - N/A   Clear